GW1675 Weather Reports


time (UTC)temp
C
wind
direction
speed
KPH
gust
KPH
rain 1hr
cm
rain 24hr
cm
rain mn
cm
humidity
%
barometer
mb
20260902173053 31 176 6.4 11.3 0.00 0.00 0.00 68 1018.6
20260902171607 32 176 3.2 14.5 0.00 0.00 0.00 68 1018.6
20260902170058 32 176 4.8 9.7 0.00 0.00 0.00 68 1018.4
20260902164558 32 176 6.4 11.3 0.00 0.00 0.00 68 1018.4
20260902163051 31 176 4.8 11.3 0.00 0.00 0.00 68 1018.5
20260902161613 30 176 8.0 17.7 0.00 0.00 0.00 67 1018.6
20260902160055 31 184 9.7 22.5 0.00 0.00 0.00 68 1018.6
20260902154555 31 188 3.2 16.1 0.00 0.00 0.00 68 1018.3
20260902153048 31 180 9.7 19.3 0.00 0.00 0.00 68 1018.6
20260902151556 32 181 8.0 17.7 0.00 0.00 0.00 68 1018.8
20260902150055 33 181 9.7 17.7 0.00 0.00 0.00 68 1018.9
20260902144550 33 181 1.6 8.0 0.00 0.00 0.00 68 1018.9
20260902143052 32 181 3.2 11.3 0.00 0.00 0.00 68 1019.0
20260902141554 31 181 8.0 16.1 0.00 0.00 0.00 67 1019.4
20260902140053 31 181 8.0 16.1 0.00 0.00 0.00 67 1019.6
20260902134551 31 181 11.3 17.7 0.00 0.00 0.00 67 1020.0
20260902133100 31 182 8.0 16.1 0.00 0.00 0.00 67 1019.8
20260902131558 30 182 9.7 20.9 0.00 0.00 0.00 67 1019.9
20260902130056 31 182 9.7 16.1 0.00 0.00 0.00 67 1020.1
20260902124550 31 183 4.8 8.0 0.00 0.00 0.00 67 1020.0
20260902123101 31 183 9.7 16.1 0.00 0.00 0.00 67 1020.3
20260902121607 31 183 4.8 11.3 0.00 0.00 0.00 67 1020.4
20260902114608 30 229 9.7 17.7 0.00 0.00 0.00 67 1020.6
20260902113101 30 231 6.4 12.9 0.00 0.00 0.00 67 1020.6
20260902111602 30 231 6.4 11.3 0.00 0.00 0.00 66 1020.7
20260902110059 29 231 6.4 12.9 0.00 0.00 0.00 66 1020.6
20260902104603 29 231 3.2 12.9 0.00 0.00 0.00 66 1020.8
20260902103118 29 251 4.8 12.9 0.00 0.00 0.00 66 1020.8
20260902101555 29 251 3.2 12.9 0.00 0.00 0.00 66 1020.8
20260902100054 28 251 4.8 8.0 0.00 0.00 0.00 66 1020.6
20260902094551 28 251 0.0 6.4 0.00 0.00 0.00 66 1020.7
20260902093108 28 251 0.0 3.2 0.00 0.00 0.00 66 1020.6
20260902091555 27 261 1.6 6.4 0.00 0.00 0.00 65 1020.6
20260902084556 26 0 1.6 9.7 0.00 0.00 0.00 65 1020.4
20260902083052 26 261 6.4 14.5 0.00 0.00 0.00 65 1020.3
20260902081559 26 120 4.8 12.9 0.00 0.00 0.00 65 1020.3
20260902080059 25 120 6.4 9.7 0.00 0.00 0.00 65 1020.3
20260902074611 25 120 3.2 9.7 0.00 0.00 0.00 64 1020.5
20260902073053 23 120 3.2 8.0 0.00 0.00 0.00 64 1020.2
20260902071556 23 120 4.8 11.3 0.00 0.00 0.00 64 1020.2
20260902064555 22 120 8.0 12.9 0.00 0.00 0.00 64 1019.9
20260902063055 22 120 3.2 8.0 0.00 0.00 0.00 63 1020.0
20260902061558 21 120 4.8 8.0 0.00 0.00 0.00 63 1019.7
20260902060104 21 120 3.2 9.7 0.00 0.00 0.00 63 1019.6
20260902054556 21 120 3.2 4.8 0.00 0.00 0.00 63 1019.5
20260902053101 22 120 3.2 6.4 0.00 0.00 0.00 63 1019.5
20260902051554 22 120 4.8 8.0 0.00 0.00 0.00 63 1019.2
20260902050059 22 120 1.6 6.4 0.00 0.00 0.00 63 1019.1
20260902044557 22 120 3.2 9.7 0.00 0.00 0.00 63 1019.1
20260902043055 22 120 4.8 11.3 0.00 0.00 0.00 63 1018.9
20260902041558 22 120 4.8 12.9 0.00 0.00 0.00 63 1018.9
20260902034605 22 120 1.6 11.3 0.00 0.00 0.00 63 1019.1
20260902033102 23 120 3.2 9.7 0.00 0.00 0.00 63 1019.2
20260902031602 23 120 9.7 17.7 0.00 0.00 0.00 63 1019.1
20260902030056 23 121 9.7 17.7 0.00 0.00 0.00 63 1019.2
20260902024555 23 122 9.7 17.7 0.00 0.00 0.00 63 1019.1
20260902023052 23 122 8.0 14.5 0.00 0.00 0.00 63 1019.1
20260902021546 23 122 9.7 17.7 0.00 0.00 0.00 63 1019.1
20260902020101 23 124 12.9 20.9 0.00 0.00 0.00 63 1019.3
20260902014556 23 135 8.0 12.9 0.00 0.00 0.00 63 1019.3
20260902013052 23 135 9.7 14.5 0.00 0.00 0.00 63 1019.4
20260902011559 23 136 9.7 19.3 0.00 0.00 0.00 63 1019.7
20260902010057 23 139 8.0 14.5 0.00 0.00 0.00 63 1019.5
20260902004557 23 139 8.0 14.5 0.00 0.00 0.00 63 1019.8
20260902003104 23 141 4.8 16.1 0.00 0.00 0.00 63 1019.9
20260902001558 23 141 8.0 11.3 0.00 0.00 0.00 63 1020.1
20260902000051 23 142 8.0 11.3 0.00 0.00 0.00 63 1020.2
20260901234610 23 142 6.4 11.3 0.00 0.00 0.00 63 1020.3
20260901233101 23 142 4.8 9.7 0.00 0.00 0.00 63 1020.2
20260901231558 23 142 6.4 11.3 0.00 0.00 0.00 63 1020.2
20260901230056 23 142 6.4 11.3 0.00 0.00 0.00 63 1020.0
20260901224549 23 142 3.2 6.4 0.00 0.00 0.00 63 1020.1
20260901223058 22 0 0.0 0.0 0.00 0.00 0.00 63 1020.3
20260901221557 23 0 0.0 1.6 0.00 0.00 0.00 63 1020.4
20260901220114 23 0 0.0 0.0 0.00 0.00 0.00 64 1020.3
20260901214601 24 0 0.0 0.0 0.00 0.00 0.00 64 1020.5
20260901213057 25 0 0.0 1.6 0.00 0.00 0.00 64 1020.5
20260901211557 25 0 0.0 1.6 0.00 0.00 0.00 64 1020.4
20260901210055 25 0 1.6 9.7 0.00 0.00 0.00 64 1020.3
20260901204553 24 142 0.0 1.6 0.00 0.00 0.00 64 1019.9
20260901203103 25 0 0.0 0.0 0.00 0.00 0.00 64 1019.7
20260901201601 25 0 0.0 4.8 0.00 0.00 0.00 64 1019.5
20260901200055 26 142 0.0 1.6 0.00 0.00 0.00 64 1018.9
20260901194601 26 0 0.0 0.0 0.00 0.00 0.00 65 1018.5
20260901193102 26 142 0.0 4.8 0.00 0.00 0.00 65 1018.3
20260901191557 27 142 3.2 6.4 0.00 0.00 0.00 65 1018.1
20260901190054 27 142 3.2 4.8 0.00 0.00 0.00 65 1017.9
20260901184558 28 142 3.2 9.7 0.00 0.00 0.00 66 1017.8
20260901183058 28 142 6.4 11.3 0.00 0.00 0.00 66 1017.8
20260901181603 28 142 6.4 12.9 0.00 0.00 0.00 66 1017.8
20260901180058 29 142 8.0 14.5 0.00 0.00 0.00 66 1017.8
20260901174554 30 142 4.8 11.3 0.00 0.00 0.00 66 1017.9